User: anonymous   Login
Location: Newark
(12.4436°N, 0.6167°W)
Time: 14:33:10
(UTC+00:00)
Language:

Transit 2A Rocket - Orbit

View from above orbital plane
View from above orbital plane
View from above satellite
View from above satellite

Ground track
Ground track

The orbit data is extracted from the following two-line orbital elements,

1    47U 60007C   19338.70626000 -.00000020 +00000-0 +20608-4 0  9992
2    47 066.6660 318.3968 0220295 086.3799 276.2468 14.42061288106450
Epoch (UTC): 04 December 2019 16:57:00
Eccentricity: 0.0220295
inclination: 66.6660°
perigee height: 594 km
apogee height: 909 km
right ascension of ascending node: 318.3968°
argument of perigee: 86.3799°
revolutions per day: 14.42061288
mean anomaly at epoch: 276.2468°
orbit number at epoch: 10645

The dashed part of the orbit path shows where the satellite is in the earth's shadow,  

DLR